Tracking 21076 objects as of 7-Aug-2020
HD Live streaming from Space Station
objects crossing your sky now

METEOR 2-5 DEB

Track METEOR 2-5 DEB now!
10-day predictions


NORAD ID: 45507
Int'l Code: 1979-095CP
Perigee: 830.0 km
Apogee: 856.4 km
Inclination: 81.2 °
Period: 101.6 minutes
Semi major axis: 7214 km
RCS: Unknown
Launch date: October 31, 1979
Source: Commonwealth of Independent States (former USSR) (CIS)
Launch site: PLESETSK MISSILE AND SPACE COMPLEX (PKMTR)

Note: This is SATELLITE DEBRIS
aabbcc
Your satellite tracking list
Your tracking list is empty




NASA's NSSDC Master Catalog

Two Line Element Set (TLE):
1 45507U 79095CP  20220.05429993  .00000618  00000-0  30173-3 0  9990
2 45507  81.2045 119.9197 0018307  55.2465 305.0430 14.16828336292567
Source of the keplerian elements: AFSPC